Location: Gull Harbor
(47.1000°N, 122.9000°W)
Time: 22:11:55
(UTC-07:00)

Mayak - Visible Passes

Search period start: 19 July 2018 00:00
Search period end: 29 July 2018 00:00
Orbit: 582 x 605 km, 97.6° (Epoch: 19 July)

Date Brightness Start Highest point End Pass type
(mag) Time Alt. Az. Time Alt. Az. Time Alt. Az.
19 Jul -1.0 00:54:26 10° N 00:58:32 61° WNW 00:59:15 52° WSW visible
19 Jul 0.6 23:29:03 10° NE 23:31:46 17° E 23:31:50 17° E visible
20 Jul -0.7 01:03:39 10° N 01:07:40 49° WNW 01:08:27 42° WSW visible
20 Jul 0.3 23:37:51 10° NE 23:41:01 21° E 23:41:02 21° E visible
21 Jul -0.3 01:12:54 10° N 01:16:47 39° WNW 01:17:39 35° W visible
21 Jul 0.1 23:46:45 10° NE 23:50:14 25° E 23:50:14 25° E visible
22 Jul 0.0 01:22:10 10° N 01:25:53 32° WNW 01:26:51 28° W visible
22 Jul -0.3 23:55:43 10° NNE 23:59:26 31° E 23:59:26 31° E visible
23 Jul 0.3 01:31:29 10° N 01:34:58 26° WNW 01:36:03 23° W visible
24 Jul -0.6 00:04:44 10° NNE 00:08:38 39° E 00:08:38 39° E visible
24 Jul 0.6 01:40:51 10° NNW 01:44:02 22° WNW 01:45:14 19° W visible
25 Jul -0.9 00:13:47 10° NNE 00:17:50 49° E 00:17:50 49° E visible
25 Jul 0.9 01:50:15 10° NNW 01:53:07 18° WNW 01:54:26 16° W visible
26 Jul -1.2 00:22:52 10° NNE 00:27:01 62° E 00:27:01 62° E visible
26 Jul 1.1 01:59:46 10° NNW 02:02:10 15° WNW 02:03:37 13° W visible
27 Jul -1.4 00:31:59 10° NNE 00:36:11 79° ESE 00:36:12 79° ESE visible
27 Jul 1.3 02:09:25 10° NW 02:11:12 13° WNW 02:12:49 10° W visible
28 Jul -1.4 00:41:08 10° NNE 00:45:20 84° WNW 00:45:23 83° W visible
28 Jul 1.5 02:19:38 10° NW 02:20:14 10° WNW 02:20:50 10° WNW visible
28 Jul 1.0 23:16:30 10° ENE 23:17:57 13° E 23:17:57 13° E visible
